FW2487 Weather Reports


time (UTC)temp
C
wind
direction
speed
KPH
gust
KPH
rain 1hr
cm
rain 24hr
cm
rain mn
cm
humidity
%
barometer
mb
20260506044536 12 133 3.2 6.4 0.00 0.00 0.00 80 1014.5
20260506043035 13 115 1.6 4.8 0.00 0.00 0.00 77 1014.4
20260506041536 13 60 1.6 8.0 0.00 0.00 0.00 76 1014.4
20260506040042 14 12 0.0 6.4 0.00 0.00 0.00 73 1014.0
20260506034610 15 15 4.8 11.3 0.00 0.00 0.00 70 1013.7
20260506033029 16 46 4.8 8.0 0.00 0.00 0.00 67 1013.5
20260506031643 17 38 6.4 11.3 0.00 0.00 0.00 64 1013.2
20260506030032 18 22 6.4 12.9 0.00 0.00 0.00 60 1013.0
20260506024609 20 36 6.4 14.5 0.00 0.00 0.00 59 1012.8
20260506023034 20 16 6.4 12.9 0.00 0.00 0.00 58 1012.8
20260506020035 21 348 9.7 20.9 0.00 0.00 0.00 56 1012.5
20260506014642 22 343 11.3 20.9 0.00 0.00 0.00 54 1012.4
20260506013034 22 343 9.7 19.3 0.00 0.00 0.00 53 1012.3
20260506011536 23 320 9.7 20.9 0.00 0.00 0.00 51 1012.2
20260506004535 23 302 4.8 16.1 0.00 0.00 0.00 51 1012.2
20260506000036 24 322 8.0 19.3 0.00 0.00 0.00 51 1012.3
20260505234535 25 333 9.7 20.9 0.00 0.00 0.00 51 1012.3
20260505233037 25 357 11.3 20.9 0.00 0.00 0.00 51 1012.3
20260505231536 25 358 11.3 19.3 0.00 0.00 0.00 50 1012.3
20260505230036 25 357 8.0 20.9 0.00 0.00 0.00 50 1012.5
20260505224608 25 32 12.9 20.9 0.00 0.00 0.00 51 1012.6
20260505223035 25 31 11.3 19.3 0.00 0.00 0.00 51 1012.7
20260505221536 24 28 12.9 20.9 0.00 0.00 0.00 51 1012.8
20260505220033 24 10 12.9 20.9 0.00 0.00 0.00 51 1012.9
20260505214605 23 10 9.7 19.3 0.00 0.00 0.00 52 1013.0
20260505213034 23 12 12.9 20.9 0.00 0.00 0.00 52 1013.1
20260505211535 23 4 11.3 24.1 0.00 0.00 0.00 52 1013.2
20260505210036 23 23 12.9 20.9 0.00 0.00 0.00 52 1013.3
20260505204531 23 24 11.3 17.7 0.00 0.00 0.00 53 1013.4
20260505203037 22 356 8.0 16.1 0.00 0.00 0.00 52 1013.6
20260505201641 22 13 11.3 17.7 0.00 0.00 0.00 54 1013.6
20260505194534 22 4 9.7 16.1 0.00 0.00 0.00 54 1013.7
20260505191537 21 10 8.0 12.9 0.00 0.00 0.00 53 1013.9
20260505190036 21 12 6.4 14.5 0.00 0.00 0.00 53 1014.0
20260505183141 21 3 8.0 19.3 0.00 0.00 0.00 55 1014.0
20260505181608 20 294 6.4 17.7 0.00 0.00 0.00 55 1014.1
20260505180037 20 285 6.4 14.5 0.00 0.00 0.00 56 1014.1
20260505174532 19 291 11.3 20.9 0.00 0.00 0.00 57 1014.0
20260505173029 18 294 9.7 17.7 0.00 0.00 0.00 58 1014.0
20260505171535 19 294 8.0 17.7 0.00 0.00 0.00 57 1014.0
20260505164644 18 243 3.2 9.7 0.00 0.00 0.00 59 1013.9
20260505163036 18 315 4.8 11.3 0.00 0.00 0.00 60 1013.9
20260505161535 18 332 3.2 11.3 0.00 0.00 0.00 61 1013.9
20260505153033 16 38 1.6 6.4 0.00 0.00 0.00 68 1014.0
20260505151644 15 85 0.0 4.8 0.00 0.00 0.00 72 1014.0
20260505124535 8 163 4.8 8.0 0.00 0.00 0.00 89 1013.1
20260505123033 8 174 4.8 9.7 0.00 0.00 0.00 89 1013.1
20260505121532 8 162 6.4 8.0 0.00 0.00 0.00 89 1013.0
20260505114535 8 187 3.2 6.4 0.00 0.00 0.00 88 1012.9
20260505113107 8 176 4.8 8.0 0.00 0.00 0.00 88 1012.9
20260505111611 8 164 6.4 11.3 0.00 0.00 0.00 86 1012.8
20260505101533 10 151 4.8 9.7 0.00 0.00 0.00 80 1012.5
20260505100044 11 153 4.8 8.0 0.00 0.00 0.00 77 1012.5
20260505093031 12 151 1.6 4.8 0.00 0.00 0.00 75 1012.4
20260505090035 14 150 1.6 8.0 0.00 0.00 0.00 70 1012.2
20260505084606 15 199 4.8 11.3 0.00 0.00 0.00 69 1012.2
20260505083034 15 186 4.8 9.7 0.00 0.00 0.00 69 1012.2
20260505081535 16 212 8.0 27.4 0.00 0.00 0.00 68 1012.1
20260505080036 16 204 8.0 22.5 0.00 0.00 0.00 68 1012.1
20260505074535 16 226 8.0 14.5 0.00 0.00 0.00 69 1012.0
20260505071645 15 213 3.2 11.3 0.00 0.00 0.00 71 1011.9
20260505070036 16 204 3.2 14.5 0.00 0.00 0.00 69 1011.8
20260505064534 16 185 6.4 16.1 0.00 0.00 0.00 69 1011.8
20260505061538 16 200 4.8 12.9 0.00 0.00 0.00 68 1011.8